Regional Weather Roundup
Issued by NWS

Home | Current Version | Previous Version | Graphics & Text | Print | Product List | Glossary Off
Versions: 1 2 3 4 5 6 7 8 9 10 11 12 13 14 15 16 17 18 19 20 21 22 23 24 25 26 27 28 29 30 31 32 33 34 35 36 37 38 39 40 41 42 43 44 45 46 47 48 49 50

326
ASUS43 KMKX 052311
RWRWI

WISCONSIN REGIONAL WEATHER ROUNDUP
NATIONAL WEATHER SERVICE MILWAUKEE/SULLIVAN WI
600 PM CDT THU MAY 05 2016

NOTE: "FAIR" INDICATES FEW OR NO CLOUDS BELOW 12,000 FEET WITH NO
SIGNIFICANT WEATHER AND/OR OBSTRUCTIONS TO VISIBILITY.

WIZ001-002-006>008-014>016-023>028-060000-
NORTHWEST WISCONSIN

CITY           SKY/WX    TMP DP  RH WIND       PRES   REMARKS
SUPERIOR ARPT  SUNNY     80  40  24 W16G23    29.80S
ASHLAND        SUNNY     72  38  29 S14       29.85F
HAYWARD        SUNNY     70  38  31 SW8G16    29.89F
SIREN          SUNNY     75  34  22 W13G21    29.88F
CUMBERLAND     SUNNY     68  34  28 SW12      29.91F
RICE LAKE      SUNNY     70  35  27 SW10      29.93F
CHETEK         MOSUNNY   69  42  36 W7        29.92F
LADYSMITH      CLOUDY    67  38  34 W7        29.96R
EAU CLAIRE     MOSUNNY   69  35  28 S3        29.94F
MENOMONIE      MOSUNNY   73  37  27 SW10      29.93F
NEW RICHMOND   SUNNY     72  35  26 SW8       29.92F
OSCEOLA        SUNNY     75  36  23 SW9       29.93F
$$

WIZ003>005-009-010-017-018-060000-
NORTH CENTRAL WISCONSIN

CITY           SKY/WX    TMP DP  RH WIND       PRES   REMARKS
MANITOWISH WTR PTSUNNY   68  39  35 SW7       29.90S
ARBOR VITAE    SUNNY     67  35  31 SW10      29.90F
WOODRUFF       SUNNY     67  35  31 SW10      29.90F
RHINELANDER    SUNNY     68  35  29 W10       29.91F
EAGLE RIVER    SUNNY     67  30  25 W9        29.90S
LAND O LAKES   SUNNY     68  31  25 SW10      29.90F
PHILLIPS       MOSUNNY   65  39  38 SW7       29.91S
TOMAHAWK       SUNNY     67  35  31 W7        29.92F
MEDFORD        CLOUDY    63  40  43 SW7       29.94F
MERRILL        SUNNY     66  37  34 W9        29.93F
$$

WIZ029-030-035-036-043>047-060000-
CENTRAL WISCONSIN

CITY           SKY/WX    TMP DP  RH WIND       PRES   REMARKS
WAUSAU         SUNNY     67  35  30 W12       29.92F
MOSINEE        SUNNY     64  32  29 W6        29.96F
MARSHFIELD     CLOUDY    67  34  29 W7        29.94F
STEVENS POINT  SUNNY     64  32  29 W8        29.95F
WAUPACA        SUNNY     69  28  21 W7        29.94F
WAUTOMA        SUNNY     68  28  22 NW8       29.95F
WISC RAPIDS    SUNNY     69  26  20 W6        29.95F
CAMP DOUGLAS   PTSUNNY   68  36  30 W7        29.95F
$$

WIZ011>013-019>022-031-037>040-048>050-060000-
NORTHEAST WISCONSIN

CITY           SKY/WX    TMP DP  RH WIND       PRES   REMARKS
ANTIGO         SUNNY     64  37  37 W12       29.93S
SHAWANO        SUNNY     70  29  21 W8        29.92S
OCONTO         SUNNY     60  38  44 S9        29.92F
STURGEON BAY   MOSUNNY   55  39  54 SE9       29.96F
GREEN BAY      SUNNY     65  40  39 SW8       29.93F
MANITOWOC      SUNNY     51  38  60 MISG      29.97F
APPLETON       MOSUNNY   64  36  34 S7        29.93F
CLINTONVILLE   SUNNY     68  28  22 W7        29.92F
OSHKOSH        SUNNY     61  39  44 E8        29.95F
$$

WIZ032>034-041-042-053>061-060000-
SOUTHWEST WISCONSIN

CITY           SKY/WX    TMP DP  RH WIND       PRES   REMARKS
LA CROSSE      SUNNY     70  37  29 W5        29.96F
SPARTA         SUNNY     68  35  29 W5        29.96F
VIROQUA        SUNNY     66  35  31 W3        29.98S
BOSCOBEL       SUNNY     70  30  22 W8        29.98F
PRAIRIE DU CHI SUNNY     69  31  24 CALM      29.97F
PLATTEVILLE    SUNNY     67  35  30 W9        29.98F
$$

WIZ056-057-062-063-064-067-068-060000-
SOUTH CENTRAL WISCONSIN

CITY           SKY/WX    TMP DP  RH WIND       PRES   REMARKS
REEDSBURG      SUNNY     65  33  29 SW7       29.96F
BARABOO/DELLS  SUNNY     66  27  22 W7        29.96S
LONE ROCK      SUNNY     67  36  31 NW6       29.97F
MINERAL POINT  SUNNY     68  32  26 W7        29.98S
MADISON        SUNNY     66  36  32 N7        29.96F
MIDDLETON      SUNNY     67  33  28 NW7       29.97S
WATERTOWN      SUNNY     64  38  38 N6        29.96S
MONROE         SUNNY     64  34  32 NW6       29.98S
JANESVILLE     SUNNY     66  34  30 NW6       29.97S
$$

WIZ051-052-058>065-066-070>072-060000-
SOUTHEAST WISCONSIN

CITY           SKY/WX    TMP DP  RH WIND       PRES   REMARKS
MILWAUKEE      MOSUNNY   52  37  56 E7        29.98F
WAUKESHA       SUNNY     63  34  34 NW8       29.97F
MILWAUKEE/TIMM NOT AVBL
RACINE         SUNNY     53  37  54 NE6       29.99S
BURLINGTON     SUNNY     64  33  32 W7        29.96F
KENOSHA        SUNNY     53  39  59 E7        29.98S
FOND DU LAC    SUNNY     64  38  38 E5        29.95F
SHEBOYGAN      SUNNY     56  40  55 E5        29.96F
WEST BEND      SUNNY     63  32  31 NW3       29.96S
JUNEAU         SUNNY     64  35  34 NW8       29.97S
$$

LSZ147-162-060000-
LAKE SUPERIOR

STATION/POSITION TIME  TEMP    WIND        PRES    WAVE
                       AIR SEA DIR/SP/G            HT/PER
                 (UTC) (F)     (DEG/KT/KT) (MB)    (FT/S)
W MID LAKE BUOY  2250   43 37  120/  4/  4 1010.9F   0
DEVILS ISLAND    2300   67     180/  8/ 10 1009.3F
SAXON HARBOR     2240   73     200/ 11/ 16 1010.2F
$$

LMZ867-665-643>646-060000-
LAKE MICHIGAN

STATION/POSITION TIME  TEMP    WIND        PRES    WAVE
                       AIR SEA DIR/SP/G            HT/PER
                 (UTC) (F)     (DEG/KT/KT) (MB)    (FT/S)
CHAMBERS ISLAND  2200   58     160/  3/  8 1013.9F
N MID LAKE BUOY  2250   41 39  190/  8/  8 1013.9F   0
NORTHPORT PIER   2200   51     150/  7/ 11 1013.9F
ALGOMA LAKESHORE 2245          200/  9/ 10   N/A
KEWAUNEE LAKESHO 2200          150/  5/  5 1014.4F
SHEBOYGAN LAKESH 2300   45     180/  4/  5 1015.5F
PORT WASHINGTON  2240   47      60/  1/  3 1015.9F
S MID LAKE BUOY  2250   43 40   30/  4/  6 1014.9F   2/ 5
KENOSHA   LAKESH 2300   49      CALM  /  2 1015.2F
$$

TC  - TEMPERATURE IN CELSIUS
VSB - VISIBILITY IN STATUTE MILES
WCI - WIND CHILL INDEX
HX  - HEAT INDEX





USA.gov is the U.S. government's official web portal to all federal, state and local government web resources and services.